Regional Weather Roundup
Issued by NWS

Home | Current Version | Previous Version | Text Only | Print | Product List | Glossary On
Versions: 1 2 3 4 5 6 7 8 9 10 11 12 13 14 15 16 17 18 19 20 21 22 23 24 25 26 27 28 29 30 31 32 33 34 35 36 37 38 39 40 41 42 43 44 45 46 47 48 49 50
000
ASUS45 KABQ 230601
RWRNM
NEW MEXICO REGIONAL WEATHER ROUNDUP
NATIONAL WEATHER SERVICE ALBUQUERQUE NM
1100 PM MST SUN JAN 22 2017

NOTE: "FAIR" MEANS FEW OR NO CLOUDS BELOW 12,000 FEET AGL WITH NO
       SIGNIFICANT WEATHER OR OBSTRUCTIONS TO VISION.

      THIS PRODUCT IS RELEASED AS TWO VERSIONS.  ONE VERSION NEAR
      THE TOP OF THE HOUR CONTAINING PRELIMINARY DATA FROM ALBUQUERQUE
      AND OTHER STATIONS.  A FINAL VERSION WITH ADDITIONAL DATA IS
      ISSUED ABOUT 10 MINUTES AFTER THE HOUR.

NMZ501-503-504-510>518-230700-
NORTHWEST PLATEAU/NORTHCENTRAL MOUNTAINS

CITY           SKY/WX    TMP DP  RH WIND       PRES   REMARKS
FARMINGTON     LGT SNOW  30  27  88 NE10      30.08R FOG     WCI  21
6HR MIN TEMP:  30; 6HR MAX TEMP:  35; 6HR PCP: TRACE;

LOS ALAMOS     MOCLDY    30  22  72 CALM      30.07S
SANTA FE       CLOUDY    33  26  75 CALM      30.08S
6HR MIN TEMP:  32; 6HR MAX TEMP:  35;

TAOS           CLOUDY    28  14  54 SW7       30.08S WCI  21
ANGEL FIRE     CLOUDY    25  12  57 S3        30.03F

$$
NMZ402-403-502-505>509-230700-
WESTCENTRAL MOUNTAINS/SOUTHWEST MOUNTAINS

CITY           SKY/WX    TMP DP  RH WIND       PRES   REMARKS
GALLUP         FLURRIES  32  27  81 SW6       30.07F WCI  26
6HR MIN TEMP:  29; 6HR MAX TEMP:  33; 6HR PCP:  0.01;

GRANTS         MOCLDY    32  29  90 E6        30.09S WCI  26
SILVER CITY    FAIR      34  26  72 NW7       30.16R WCI  27

$$
NMZ407-409-411-412-230700-
SOUTHERN DESERTS

CITY           SKY/WX    TMP DP  RH WIND       PRES   REMARKS
DEMING         FAIR      36  30  79 SW6       30.15R WCI  31
6HR MIN TEMP:  36; 6HR MAX TEMP:  50;

LAS CRUCES     FAIR      40  30  68 W12       30.15S WCI  33
ALAMOGORDO     FAIR      36  25  64 S5        30.13S WCI  32
T OR C         FAIR      36  30  79 E5        30.10S WCI  32
6HR MIN TEMP:  36; 6HR MAX TEMP:  48;


$$
NMZ519>523-230700-
CENTRAL VALLEYS/CENTRAL HIGHLANDS

CITY           SKY/WX    TMP DP  RH WIND       PRES   REMARKS
ALBUQUERQUE    CLOUDY    38  30  73 SE6       30.09F WCI  33
6HR MIN TEMP:  37; 6HR MAX TEMP:  42;

DOUBLE EAGLE   CLOUDY    34  31  87 CALM      30.09F
MORIARTY ARPT  CLOUDY    34  26  73 NW7       30.08F WCI  28
6HR MIN TEMP:  32; 6HR MAX TEMP:  39;

CLINES CORNERS MOCLDY    31  25  78 W21       30.05S WCI  18
6HR MIN TEMP:  28; 6HR MAX TEMP:  33;

BELEN          CLOUDY    36  31  82 N3        30.11S
6HR MIN TEMP:  36; 6HR MAX TEMP:  44;

SOCORRO        FAIR      35  24  63 SE3       30.11S
6HR MIN TEMP:  34; 6HR MAX TEMP:  48;


$$
NMZ524>526-539-540-230700-
SOUTHCENTRAL MOUNTAINS

CITY           SKY/WX    TMP DP  RH WIND       PRES   REMARKS
RUIDOSO        NOT AVBL

$$
NMZ527>531-230700-
NORTHEAST HIGHLANDS/NORTHEAST PLAINS

CITY           SKY/WX    TMP DP  RH WIND       PRES   REMARKS
LAS VEGAS      FAIR      35  26  69 SW15      29.94F WCI  25
6HR MIN TEMP:  27; 6HR MAX TEMP:  36;

RATON          FAIR      28  15  58 CALM      29.92F
6HR MIN TEMP:  26; 6HR MAX TEMP:  41;

CLAYTON        FAIR      32  22  66 SW9       29.94F WCI  24
6HR MIN TEMP:  28; 6HR MAX TEMP:  41;


$$
NMZ532>537-230700-
EASTCENTRAL PLAINS

CITY           SKY/WX    TMP DP  RH WIND       PRES   REMARKS
TUCUMCARI      FAIR      37  22  54 SW12      29.94F WCI  29
6HR MIN TEMP:  33; 6HR MAX TEMP:  54;

CANNON AFB     FAIR      43  18  36 W13       30.00S
6HR MIN TEMP:  37; 6HR MAX TEMP:  52;

CLOVIS AIRPORT FAIR      36  18  48 W12       29.99F WCI  27

$$
NMZ028-029-538-230700-
SOUTHEAST PLAINS

CITY           SKY/WX    TMP DP  RH WIND       PRES   REMARKS
ROSWELL        FAIR      36  24  62 W3        30.02F
6HR MIN TEMP:  34; 6HR MAX TEMP:  59;

ARTESIA        FAIR      45  27  49 CALM      30.03F
CARLSBAD       FAIR      48  25  40 S6        30.03S
6HR MIN TEMP:  47; 6HR MAX TEMP:  56;



$$




USA.gov is the U.S. government's official web portal to all federal, state and local government web resources and services.